Meteo Giornale » Osservazioni meteo Stati Uniti (USA) » Los Angeles

ore: 13:53 - Osservazioni Meteo Los Angeles
Lat. 33° 56' N Lon. 118° 23' W Alt. 38 metri s.l.m.

molto_nuvoloso America/Los_Angeles

19 °C

Molto Nuvoloso

Temp. 24 Ore

14 °C

20 °C

Ovest

18.5 Km/h

Dew point 13 °C

Umidità 68 %

Visibilità  13 Km

Il sole sorge alle ore 06:24

Il sole tramonta alle ore 16:51

Data e Ora Cielo e Fenomeni T °C DP °C Um. % Pres. hPa Vis. km Vento km/h
Oggi h: 13:53 molto_nuvoloso Molto Nuvoloso 19 13 68 1018 13 O 18.5
Oggi h: 12:53 molto_nuvoloso Molto Nuvoloso 20 12 59 1018 11 O 18.5
Oggi h: 11:53 foschia Foschia 19 13 68 1019 10 O 16.7
Oggi h: 10:53 foschia Foschia 19 13 68 1019 8 O/SO 11.1
Oggi h: 09:53 foschia Foschia 18 13 72 1020 6 N 0
Oggi h: 09:19 foschia Foschia 17 12 72 1020 6 N 5.5
Oggi h: 08:53 foschia Foschia 17 13 77 1020 6 N 0
Oggi h: 07:53 foschia Foschia 16 13 82 1019 6 N 5.5
Oggi h: 07:40 foschia Foschia 16 12 77 1019 6 N 0
Oggi h: 07:05 foschia Foschia 16 12 77 1019 6 N 0
Oggi h: 06:53 foschia Foschia 16 12 77 1019 6 N 0
Oggi h: 06:38 foschia Foschia 16 12 77 1019 6 N 5.5
Oggi h: 05:53 foschia Foschia 15 12 82 1018 6 N/NE 7.4
Oggi h: 05:51 foschia Foschia 15 12 82 1018 6 N/NE 7.4
Oggi h: 04:53 foschia Foschia 14 12 87 1018 8 N 5.5
Oggi h: 04:48 foschia Foschia 14 12 87 1018 8 N 0
Oggi h: 03:53 nuvoloso Nuvoloso 14 12 87 1017 13 N 0
Oggi h: 02:53 nuvoloso Nuvoloso 15 12 82 1017 14 N 5.5
Oggi h: 02:28 nuvoloso Nuvoloso 15 12 82 1017 14 N 5.5
Oggi h: 01:53 molto_nuvoloso Molto Nuvoloso 16 12 77 1017 10 N 0
Oggi h: 00:53 molto_nuvoloso Molto Nuvoloso 16 12 77 1017 10 N 0
Ieri h: 23:53 molto_nuvoloso Molto Nuvoloso 16 13 82 1017 10 O/SO 9.3
Ieri h: 23:51 molto_nuvoloso Molto Nuvoloso 16 13 82 1017 10 O/SO 9.3
Ieri h: 22:53 molto_nuvoloso Molto Nuvoloso 16 12 77 1017 10 N 5.5
Ieri h: 21:53 poco_nuvoloso Poco Nuvoloso 16 12 77 1017 10 SO 9.3
Ieri h: 20:53 poco_nuvoloso Poco Nuvoloso 16 12 77 1017 10 S/SO 7.4
Ieri h: 20:47 poco_nuvoloso Poco Nuvoloso 16 12 77 1017 10 S/SO 7.4
Ieri h: 19:53 coperto Coperto 17 13 77 1016 10 O/SO 13
Ieri h: 18:53 coperto Coperto 17 12 72 1016 10 O 13
Ieri h: 17:53 coperto Coperto 17 13 77 1016 10 O/SO 14.8
Ieri h: 16:53 coperto Coperto 17 12 72 1015 10 O 11.1
Ieri h: 15:53 coperto Coperto 18 13 72 1015 10 O 18.5
Ieri h: 15:19 molto_nuvoloso Molto Nuvoloso 18 13 72 1015 10 O 24
Ieri h: 14:53 molto_nuvoloso Molto Nuvoloso 18 13 72 1015 14 O 22.2
Ieri h: 13:53 foschia Foschia 19 13 68 1015 10 O/SO 18.5